Previsão horária em Cerro de San Antonio

Hoje, 3 Agosto, Terça-feira

Tempo Temperatura Precipitação Vento Pressão Humidade
00:00 +27°C° 0.3 mm 1 m/s 758 mmHg 90%
01:00 +27°C° 0 mm 1 m/s 758 mmHg 88%
02:00 +27°C° 0 mm 1 m/s 758 mmHg 88%
03:00 +27°C° 0 mm 1 m/s 757 mmHg 88%
04:00 +27°C° 0 mm 1 m/s 757 mmHg 88%
05:00 +27°C° 0 mm 1 m/s 757 mmHg 87%
06:00 +27°C° 0 mm 2 m/s 758 mmHg 86%
07:00 +27°C° 0 mm 2 m/s 758 mmHg 85%
08:00 +28°C° 0 mm 2 m/s 759 mmHg 80%
09:00 +29°C° 0 mm 2 m/s 759 mmHg 75%
10:00 +30°C° 0 mm 2 m/s 759 mmHg 70%
11:00 +31°C° 0 mm 2 m/s 759 mmHg 66%
12:00 +33°C° 0 mm 3 m/s 758 mmHg 62%
13:00 +34°C° 0 mm 3 m/s 758 mmHg 58%
14:00 +34°C° 0 mm 3 m/s 758 mmHg 57%
15:00 +34°C° 0 mm 2 m/s 757 mmHg 56%
16:00 +34°C° 0 mm 2 m/s 757 mmHg 55%
17:00 +31°C° 0 mm 2 m/s 757 mmHg 65%
18:00 +30°C° 0 mm 2 m/s 758 mmHg 75%
19:00 +28°C° 0 mm 2 m/s 758 mmHg 85%
20:00 +28°C° 0.3 mm 2 m/s 759 mmHg 86%
21:00 +27°C° 0.3 mm 1 m/s 759 mmHg 87%
22:00 +25°C° 0.3 mm 0 m/s 760 mmHg 88%
23:00 +27°C° 0.4 mm 1 m/s 759 mmHg 89%

Amanhã, 4 Agosto, Quarta-feira

Tempo Temperatura Precipitação Vento Pressão Humidade
00:00 +27°C° 0.4 mm 1 m/s 759 mmHg 90%
01:00 +27°C° 0.4 mm 1 m/s 758 mmHg 90%
02:00 +27°C° 0.1 mm 1 m/s 758 mmHg 91%
03:00 +26°C° 0.1 mm 1 m/s 758 mmHg 92%
04:00 +26°C° 0.1 mm 1 m/s 758 mmHg 93%
05:00 +26°C° 1.2 mm 1 m/s 758 mmHg 94%
06:00 +26°C° 1.2 mm 2 m/s 759 mmHg 94%
07:00 +26°C° 1.2 mm 2 m/s 759 mmHg 94%
08:00 +28°C° 0 mm 2 m/s 759 mmHg 86%
09:00 +29°C° 0 mm 2 m/s 759 mmHg 78%
10:00 +31°C° 0 mm 2 m/s 759 mmHg 70%
11:00 +32°C° 0 mm 1 m/s 759 mmHg 66%
12:00 +32°C° 0 mm 1 m/s 758 mmHg 63%
13:00 +33°C° 0 mm 1 m/s 758 mmHg 59%
14:00 +35°C° 0 mm 2 m/s 757 mmHg 56%
15:00 +35°C° 0 mm 2 m/s 757 mmHg 53%
16:00 +36°C° 0 mm 3 m/s 756 mmHg 50%
17:00 +34°C° 0 mm 3 m/s 756 mmHg 57%
18:00 +31°C° 0 mm 3 m/s 757 mmHg 65%
19:00 +29°C° 0 mm 4 m/s 757 mmHg 73%
20:00 +28°C° 0 mm 3 m/s 758 mmHg 78%
21:00 +28°C° 0 mm 2 m/s 758 mmHg 83%
22:00 +27°C° 0 mm 2 m/s 759 mmHg 88%
23:00 +27°C° 0 mm 2 m/s 758 mmHg 90%

Depois de amanhã, 5 Agosto, Quinta-feira

Tempo Temperatura Precipitação Vento Pressão Humidade
00:00 +27°C° 0 mm 2 m/s 758 mmHg 91%
01:00 +26°C° 0 mm 2 m/s 758 mmHg 93%
02:00 +26°C° 0 mm 2 m/s 758 mmHg 94%
03:00 +26°C° 0 mm 2 m/s 758 mmHg 94%
04:00 +26°C° 0 mm 2 m/s 758 mmHg 95%
05:00 +27°C° 0 mm 2 m/s 758 mmHg 92%
06:00 +27°C° 0 mm 2 m/s 758 mmHg 89%
07:00 +28°C° 0 mm 2 m/s 759 mmHg 86%
08:00 +30°C° 0 mm 2 m/s 759 mmHg 76%
09:00 +32°C° 0 mm 2 m/s 759 mmHg 65%
10:00 +35°C° 0 mm 3 m/s 759 mmHg 55%
11:00 +36°C° 0 mm 2 m/s 758 mmHg 51%
12:00 +37°C° 0 mm 2 m/s 758 mmHg 48%
13:00 +38°C° 0 mm 2 m/s 757 mmHg 44%
14:00 +37°C° 0.2 mm 2 m/s 756 mmHg 49%
15:00 +36°C° 0.2 mm 3 m/s 756 mmHg 54%
16:00 +35°C° 0.2 mm 4 m/s 756 mmHg 59%
17:00 +32°C° 2.3 mm 4 m/s 756 mmHg 70%
18:00 +29°C° 2.3 mm 4 m/s 757 mmHg 81%
19:00 +27°C° 2.3 mm 4 m/s 758 mmHg 93%
20:00 +27°C° 1.7 mm 3 m/s 758 mmHg 93%
21:00 +27°C° 1.7 mm 2 m/s 758 mmHg 94%
22:00 +27°C° 1.7 mm 1 m/s 759 mmHg 95%
23:00 +27°C° 0 mm 1 m/s 758 mmHg 94%

6 Agosto, Sexta-feira

Tempo Temperatura Precipitação Vento Pressão Humidade
00:00 +27°C° 0 mm 1 m/s 758 mmHg 93%
01:00 +27°C° 0 mm 1 m/s 757 mmHg 93%
02:00 +27°C° 0 mm 1 m/s 757 mmHg 93%
03:00 +27°C° 0 mm 1 m/s 757 mmHg 94%
04:00 +26°C° 0 mm 1 m/s 757 mmHg 94%
05:00 +27°C° 0 mm 2 m/s 758 mmHg 93%
06:00 +27°C° 0 mm 2 m/s 758 mmHg 91%
07:00 +27°C° 0 mm 2 m/s 759 mmHg 90%
08:00 +29°C° 0 mm 2 m/s 759 mmHg 81%
09:00 +31°C° 0 mm 2 m/s 759 mmHg 72%
10:00 +34°C° 0 mm 2 m/s 759 mmHg 63%
11:00 +35°C° 0 mm 2 m/s 758 mmHg 58%
12:00 +35°C° 0 mm 1 m/s 758 mmHg 54%
13:00 +36°C° 0 mm 1 m/s 757 mmHg 49%
14:00 +36°C° 0.3 mm 2 m/s 757 mmHg 54%
15:00 +35°C° 0.3 mm 3 m/s 756 mmHg 60%
16:00 +34°C° 0.3 mm 4 m/s 756 mmHg 65%
17:00 +32°C° 1.1 mm 4 m/s 756 mmHg 73%
18:00 +30°C° 1.1 mm 4 m/s 757 mmHg 81%
19:00 +28°C° 1.1 mm 3 m/s 757 mmHg 88%
20:00 +28°C° 0 mm 3 m/s 758 mmHg 89%
21:00 +28°C° 0 mm 2 m/s 758 mmHg 89%
22:00 +28°C° 0 mm 2 m/s 759 mmHg 89%
23:00 +28°C° 0 mm 2 m/s 758 mmHg 90%

7 Agosto, Sábado

Tempo Temperatura Precipitação Vento Pressão Humidade
00:00 +27°C° 0 mm 2 m/s 758 mmHg 90%
01:00 +27°C° 0 mm 2 m/s 757 mmHg 91%
02:00 +27°C° 0.3 mm 1 m/s 757 mmHg 91%
03:00 +27°C° 0.3 mm 1 m/s 757 mmHg 92%
04:00 +27°C° 0.3 mm 1 m/s 757 mmHg 92%
05:00 +27°C° 1 mm 1 m/s 758 mmHg 92%
06:00 +27°C° 1 mm 2 m/s 758 mmHg 92%
07:00 +27°C° 1 mm 2 m/s 758 mmHg 92%
08:00 +28°C° 0 mm 2 m/s 759 mmHg 87%
09:00 +29°C° 0 mm 2 m/s 759 mmHg 82%
10:00 +30°C° 0 mm 2 m/s 759 mmHg 76%
11:00 +31°C° 0.1 mm 2 m/s 759 mmHg 71%
12:00 +34°C° 0.1 mm 2 m/s 758 mmHg 65%
13:00 +35°C° 0.1 mm 2 m/s 758 mmHg 59%
14:00 +34°C° 0.4 mm 2 m/s 757 mmHg 62%
15:00 +34°C° 0.4 mm 2 m/s 757 mmHg 66%
16:00 +32°C° 0.4 mm 2 m/s 757 mmHg 70%
17:00 +31°C° 0.3 mm 2 m/s 757 mmHg 76%
18:00 +30°C° 0.3 mm 3 m/s 757 mmHg 82%
19:00 +28°C° 0.3 mm 3 m/s 758 mmHg 88%
20:00 +28°C° 0.2 mm 3 m/s 758 mmHg 89%
21:00 +28°C° 0.2 mm 2 m/s 758 mmHg 90%
22:00 +27°C° 0.2 mm 2 m/s 759 mmHg 91%
23:00 +27°C° 0.5 mm 2 m/s 758 mmHg 92%

8 Agosto, Domingo

Tempo Temperatura Precipitação Vento Pressão Humidade
00:00 +27°C° 0.5 mm 2 m/s 758 mmHg 93%
01:00 +27°C° 0.5 mm 2 m/s 758 mmHg 94%
02:00 +27°C° 0.8 mm 2 m/s 757 mmHg 94%
03:00 +26°C° 0.8 mm 1 m/s 757 mmHg 95%
04:00 +26°C° 0.8 mm 1 m/s 757 mmHg 95%
05:00 +26°C° 0.5 mm 1 m/s 757 mmHg 94%
06:00 +27°C° 0.5 mm 1 m/s 758 mmHg 94%
07:00 +27°C° 0.5 mm 2 m/s 758 mmHg 93%
08:00 +28°C° 0.8 mm 2 m/s 758 mmHg 86%
09:00 +30°C° 0.8 mm 2 m/s 759 mmHg 80%
10:00 +31°C° 0.8 mm 2 m/s 759 mmHg 74%
11:00 +32°C° 0.7 mm 2 m/s 758 mmHg 70%
12:00 +34°C° 0.7 mm 2 m/s 758 mmHg 65%
13:00 +34°C° 0.7 mm 2 m/s 758 mmHg 61%
14:00 +34°C° 0.3 mm 2 m/s 757 mmHg 61%
15:00 +34°C° 0.3 mm 2 m/s 757 mmHg 61%
16:00 +35°C° 0.3 mm 2 m/s 756 mmHg 61%
17:00 +32°C° 0.8 mm 2 m/s 756 mmHg 69%
18:00 +30°C° 0.8 mm 2 m/s 757 mmHg 78%
19:00 +29°C° 0.8 mm 2 m/s 757 mmHg 86%
20:00 +28°C° 0.2 mm 2 m/s 758 mmHg 88%
21:00 +28°C° 0.2 mm 2 m/s 758 mmHg 91%
22:00 +27°C° 0.2 mm 2 m/s 758 mmHg 93%
23:00 +27°C° 0.1 mm 1 m/s 758 mmHg 93%
Mostrar mais

Necessitamos do seu Consentimento

A Meteoprog e os seus Fornecedores de Serviços podem armazenar e aceder a dados pessoais como cookies, identificadores do dispositivo ou outras tecnologias semelhantes existentes no seu dispositivo e processar estes dados para personalizar conteúdos e anúncios, assim como funcionalidades nas redes sociais e análise de tráfego.

  • Armazenar e/ou aceder a informações no seu dispositivo

    Os cookies, identificadores do dispositivo ou outras informações podem ser armazenados ou acedidos no seu dispositivo, para os fins acima indicados.

  • Anúncios e conteúdos personalizados, medição de anúncios e conteúdos, dados sobre o público-alvo e desenvolvimento de produtos

    Os anúncios e os conteúdos podem ser personalizados com base num perfil. Podem ser adicionados dados adicionais para uma maior personalização dos anúncios e dos conteúdos. A eficácia dos anúncios e dos conteúdos pode ser medida. Podem ser obtidas informações sobre o público que visualizou os anúncios e os conteúdos. Estes dados podem ser usados para desenvolver ou melhorar sistemas, softwares ou a experiência do utilizador.

Ao clicar em "Eu concordo”, permitirá o uso de cookies, identificadores do dispositivo e web beacons mencionados ou outras tecnologias semelhantes. As configurações do navegador do seu dispositivo podem ser alteradas.

Para certos fins, podem ser invocados interesses legítimos ao invés de consentimento. Pode ler mais informação sobre este assunto na nossa Política de Privacidade e Cookies.